This is the latest recevied weather packets stored in our database for station/object KC3ROS. If no packets are shown the sender has not sent any weather packets the latest 10 day(s).
| Time | Temp. | Humidity | Pressure | Rain* | Wind** | Luminosity | Snow |
|---|---|---|---|---|---|---|---|
| 1777930691 | 22.22° C | 50% | 1005.6 hPa | 0 mm | - | 82 W/m² | - |
| 1777930387 | 22.22° C | 49% | 1005.7 hPa | 0 mm | - | 365 W/m² | - |
| 1777930085 | 21.67° C | 50% | 1005.7 hPa | 0 mm | - | 397 W/m² | - |
| 1777929780 | 22.22° C | 48% | 1005.6 hPa | 0 mm | - | 381 W/m² | - |
| 1777929478 | 22.22° C | 49% | 1005.8 hPa | 0 mm | - | 411 W/m² | - |
| 1777929174 | 21.11° C | 51% | 1006 hPa | 0 mm | - | 211 W/m² | - |
| 1777928872 | 21.67° C | 51% | 1005.8 hPa | 0 mm | - | 397 W/m² | - |
| 1777928569 | 21.11° C | 49% | 1005.8 hPa | 0 mm | - | 426 W/m² | - |
| 1777928266 | 22.22° C | 49% | 1005.7 hPa | 0 mm | - | 85 W/m² | - |
| 1777927963 | 22.22° C | 49% | 1005.8 hPa | 0 mm | - | 492 W/m² | - |
| 1777927661 | 22.22° C | 48% | 1005.6 hPa | 0 mm | - | 88 W/m² | - |
| 1777927359 | 22.78° C | 46% | 1005.6 hPa | 0 mm | - | 514 W/m² | - |
| 1777927059 | 22.22° C | 50% | 1005.8 hPa | 0 mm | - | 562 W/m² | - |
| 1777926755 | 20.56° C | 51% | 1005.4 hPa | 0 mm | - | 578 W/m² | - |
| 1777926455 | 21.67° C | 50% | 1005.8 hPa | 0 mm | - | 146 W/m² | - |
| 1777926153 | 21.11° C | 50% | 1005.8 hPa | 0 mm | - | 616 W/m² | - |
| 1777925850 | 22.22° C | 50% | 1005.8 hPa | 0 mm | - | 156 W/m² | - |
| 1777925547 | 21.67° C | 49% | 1005.9 hPa | 0 mm | - | 619 W/m² | - |
| 1777925245 | 21.67° C | 51% | 1005.9 hPa | 0 mm | - | 650 W/m² | - |
| 1777924940 | 21.67° C | 51% | 1006.1 hPa | 0 mm | - | 158 W/m² | - |
| 1777924637 | 22.22° C | 51% | 1006 hPa | 0 mm | - | 158 W/m² | - |
| 1777924333 | 22.78° C | 47% | 1006.1 hPa | 0 mm | - | 626 W/m² | - |
| 1777924030 | 22.78° C | 47% | 1006.1 hPa | 0 mm | - | 552 W/m² | - |
| 1777923726 | 22.22° C | 50% | 1005.9 hPa | 0 mm | - | 707 W/m² | - |
| 1777923423 | 22.78° C | 47% | 1006.2 hPa | 0 mm | - | 707 W/m² | - |
* Rain latest hour (hover to see other rain measurements)
** Current wind speed in m/s (hover to see current wind gust speed)